Weather in Dmitriyevka

Russia / Belgorod Oblast     50°46′27″N   35°59′34″E
temp.,
°C
wind,
m/s
gust,
m/s
humid.,
%
clouds,
%
prec.,
mm/h
press.,
hPa
HPBL,
m
5 august, thu
thu500:00+17e365219 0.0 101892
03:00+16ese3555100 0.0 101874
06:00+17se385593 0.0 1017164
09:00+24sse46385 0.0 1016579
12:00+28sw4630100 0.0 10152715
15:00+27w3533100 0.0 10141196
18:00+29sse243096 0.0 10132346
21:00+24se224051 0.0 101319
6 august, fri
fri600:00+20se475182 0.0 1012101
03:00+19se49535 0.0 1012150
06:00+18ese41054100 0.0 1011180
09:00+26se5736100 0.0 1009472
12:00+32sse69325 0.0 10082145
15:00+35s79235 0.0 10063108
18:00+33s693089 0.0 10051095
21:00+24sw3566100 2.1 100660
7 august, sat
sat700:00+22e4675100 0.1 100784
03:00+21ese596748 0.3 1006137
06:00+18se41583100 2.3 1007359
09:00+21se51274100 4.0 1008387
12:00+26sse5751100 1.4 1008641
15:00+28sw2447100 3.0 1007596
18:00+30nw1241100 0.0 1007545
21:00+24ne346299 0.0 100855
8 august, sun
sun800:00+20nnw4880100 0.1 1010161
03:00+19n4992100 0.1 1011290
06:00+19n4995100 0.3 1012287
09:00+23n677667 1.0 1012531
12:00+28n66525 0.0 10121155
15:00+30nne544318 0.0 10121843
18:00+29n554726 0.0 10121301
21:00+22n48730 0.8 1015166
9 august, mon
mon900:00+20nne410676 0.0 1015205
03:00+18nne39654 0.0 1015188
06:00+17nne38684 0.0 1016168
09:00+24nne45455 0.0 1015525
12:00+29n44320 0.0 10151314
15:00+31n43240 0.0 10142098
18:00+29n44243 0.0 10141945
21:00+22n48482 0.0 1015119